Time,TemperatureF,DewpointF,PressureIn,WindDirection,WindDirectionDegrees,WindSpeedMPH,WindSpeedGustMPH,Humidity,HourlyPrecipIn,Conditions,Clouds,dailyrainin,SolarRadiationWatts/m^2,SoftwareType,DateUTC
2013-12-26 00:00:00,11.0,-99.9,-100.00,NNE,22,1.0,3.0,-999,-99.99,,,-99.99,97.199997,,2013-12-26 07:00:00,
2013-12-26 00:53:00,11.0,-99.9,-100.00,NNE,22,1.0,3.0,-999,-99.99,,,-99.99,97.199997,,2013-12-26 07:53:00,
2013-12-26 03:00:00,7.0,-99.9,-100.00,NNW,331,1.0,3.0,-999,-99.99,,,0.00,97.199997,,2013-12-26 10:00:00,
2013-12-26 03:53:00,7.0,-99.9,-100.00,NNW,331,1.0,3.0,-999,-99.99,,,0.00,97.199997,,2013-12-26 10:53:00,
2013-12-26 05:00:00,5.0,-99.9,-100.00,NW,323,0.0,1.0,-999,-99.99,,,0.00,97.900002,,2013-12-26 12:00:00,
2013-12-26 05:53:00,5.0,-99.9,-100.00,NW,323,0.0,1.0,-999,-99.99,,,0.00,97.900002,,2013-12-26 12:53:00,
2013-12-26 08:00:00,4.0,-99.9,-100.00,NNW,335,0.0,2.0,-999,-99.99,,,0.00,98.199997,,2013-12-26 15:00:00,
2013-12-26 08:54:00,4.0,-99.9,-100.00,NNW,335,0.0,2.0,-999,-99.99,,,0.00,98.199997,,2013-12-26 15:54:00,
2013-12-26 09:00:00,6.0,-99.9,-100.00,NNE,21,0.0,2.0,-999,-99.99,,,-99.99,98.199997,,2013-12-26 16:00:00,
2013-12-26 09:53:00,6.0,-99.9,-100.00,NNE,21,0.0,2.0,-999,-99.99,,,-99.99,98.199997,,2013-12-26 16:53:00,
2013-12-26 11:00:00,17.0,-99.9,-100.00,North,-999,-999.0,-999.0,-999,-99.99,,,0.00,,,2013-12-26 18:00:00,
2013-12-26 11:53:00,17.0,-99.9,-100.00,North,-999,-999.0,-999.0,-999,-99.99,,,0.00,,,2013-12-26 18:53:00,
2013-12-26 13:00:00,30.0,-99.9,-100.00,NW,320,2.0,3.0,-999,-99.99,,,0.00,96.699997,,2013-12-26 20:00:00,
2013-12-26 13:53:00,30.0,-99.9,-100.00,NW,320,2.0,3.0,-999,-99.99,,,0.00,96.699997,,2013-12-26 20:53:00,
2013-12-26 15:00:00,30.0,-99.9,-100.00,West,271,3.0,4.0,-999,-99.99,,,0.00,95.400002,,2013-12-26 22:00:00,
2013-12-26 15:52:00,30.0,-99.9,-100.00,West,271,3.0,4.0,-999,-99.99,,,0.00,95.400002,,2013-12-26 22:52:00,
2013-12-26 16:00:00,32.0,-99.9,-100.00,WSW,250,2.0,3.0,-999,-99.99,,,-99.99,95.199997,,2013-12-26 23:00:00,
2013-12-26 16:53:00,32.0,-99.9,-100.00,WSW,250,2.0,3.0,-999,-99.99,,,-99.99,95.199997,,2013-12-26 23:53:00,
2013-12-26 17:00:00,27.0,-99.9,-100.00,West,272,1.0,2.0,-999,-99.99,,,0.00,94.599998,,2013-12-27 00:00:00,
2013-12-26 17:52:00,27.0,-99.9,-100.00,West,272,1.0,2.0,-999,-99.99,,,0.00,94.599998,,2013-12-27 00:52:00,
2013-12-26 19:00:00,21.0,-99.9,-100.00,ENE,63,0.0,2.0,-999,-99.99,,,0.00,95.400002,,2013-12-27 02:00:00,
2013-12-26 19:52:00,21.0,-99.9,-100.00,ENE,63,0.0,2.0,-999,-99.99,,,0.00,95.400002,,2013-12-27 02:52:00,